Time,TemperatureF,DewpointF,PressureIn,WindDirection,WindDirectionDegrees,WindSpeedMPH,WindSpeedGustMPH,Humidity,HourlyPrecipIn,Conditions,Clouds,dailyrainin,SoftwareType,DateUTC
2013-05-19 00:01:00,57.2,52.0,30.26,SE,130,0.0,0.0,84,0.00,,,0.00,oem by Ross Wheeler,2013-05-19 04:01:00,
2013-05-19 00:05:00,57.2,52.0,30.26,SE,130,0.0,0.0,84,0.00,,,0.00,oem by Ross Wheeler,2013-05-19 04:05:00,
2013-05-19 00:10:00,57.2,52.0,30.26,SE,130,0.0,0.0,84,0.00,,,0.00,oem by Ross Wheeler,2013-05-19 04:10:00,
2013-05-19 00:15:00,57.2,52.0,30.26,SE,130,0.0,0.0,84,0.00,,,0.00,oem by Ross Wheeler,2013-05-19 04:15:00,
2013-05-19 00:25:00,57.2,52.0,30.27,SE,130,0.0,0.0,84,0.00,,,0.00,oem by Ross Wheeler,2013-05-19 04:25:00,
2013-05-19 00:31:00,57.2,52.0,30.26,SE,130,0.0,0.0,84,0.00,,,0.00,oem by Ross Wheeler,2013-05-19 04:31:00,
2013-05-19 00:35:00,57.2,52.0,30.26,SE,130,0.0,0.0,84,0.00,,,0.00,oem by Ross Wheeler,2013-05-19 04:35:00,
2013-05-19 00:40:00,57.2,52.0,30.26,SE,130,0.0,0.0,84,0.00,,,0.00,oem by Ross Wheeler,2013-05-19 04:40:00,
2013-05-19 00:45:00,57.2,52.0,30.26,SE,130,0.0,0.0,84,0.00,,,0.00,oem by Ross Wheeler,2013-05-19 04:45:00,
2013-05-19 00:55:00,57.2,52.0,30.27,South,181,1.0,0.0,84,0.00,,,0.00,oem by Ross Wheeler,2013-05-19 04:55:00,
2013-05-19 01:01:00,57.3,53.0,30.26,South,186,0.0,0.0,84,0.00,,,0.00,oem by Ross Wheeler,2013-05-19 05:01:00,
2013-05-19 01:10:00,57.5,53.0,30.26,SE,143,1.0,0.0,85,0.00,,,0.00,oem by Ross Wheeler,2013-05-19 05:10:00,
2013-05-19 01:15:00,57.5,53.0,30.26,South,176,1.0,0.0,85,0.00,,,0.00,oem by Ross Wheeler,2013-05-19 05:15:00,
2013-05-19 01:25:00,57.5,54.0,30.26,SSE,147,0.0,0.0,87,0.00,,,0.00,oem by Ross Wheeler,2013-05-19 05:25:00,
2013-05-19 01:30:00,57.5,54.0,30.25,SSE,147,1.0,0.0,88,0.00,,,0.00,oem by Ross Wheeler,2013-05-19 05:30:00,
2013-05-19 01:40:00,57.3,54.0,30.25,SSE,147,0.0,0.0,89,0.00,,,0.00,oem by Ross Wheeler,2013-05-19 05:40:00,
2013-05-19 01:45:00,57.3,55.0,30.25,SE,145,1.0,0.0,90,0.00,,,0.00,oem by Ross Wheeler,2013-05-19 05:45:00,
2013-05-19 01:55:00,57.0,55.0,30.25,SE,145,0.0,0.0,91,0.00,,,0.00,oem by Ross Wheeler,2013-05-19 05:55:00,
2013-05-19 02:01:00,56.8,55.0,30.25,SE,143,0.0,0.0,92,0.00,,,0.00,oem by Ross Wheeler,2013-05-19 06:01:00,
2013-05-19 02:10:00,56.7,55.0,30.25,SE,143,1.0,0.0,93,0.00,,,0.01,oem by Ross Wheeler,2013-05-19 06:10:00,
2013-05-19 02:15:00,56.7,55.0,30.25,SE,143,0.0,0.0,93,0.00,,,0.01,oem by Ross Wheeler,2013-05-19 06:15:00,
2013-05-19 02:25:00,56.4,55.0,30.25,SE,143,1.0,0.0,94,0.00,,,0.01,oem by Ross Wheeler,2013-05-19 06:25:00,
2013-05-19 02:31:00,56.2,55.0,30.25,SE,143,0.0,0.0,94,0.00,,,0.01,oem by Ross Wheeler,2013-05-19 06:31:00,
2013-05-19 02:40:00,56.2,55.0,30.25,SE,143,0.0,0.0,94,0.00,,,0.02,oem by Ross Wheeler,2013-05-19 06:40:00,
2013-05-19 02:45:00,56.2,55.0,30.25,SE,143,0.0,0.0,95,0.00,,,0.02,oem by Ross Wheeler,2013-05-19 06:45:00,
2013-05-19 02:55:00,56.1,55.0,30.24,SE,143,0.0,0.0,95,0.00,,,0.02,oem by Ross Wheeler,2013-05-19 06:55:00,
2013-05-19 03:00:00,55.9,55.0,30.24,SE,144,0.0,0.0,95,0.00,,,0.02,oem by Ross Wheeler,2013-05-19 07:00:00,
2013-05-19 03:10:00,55.8,54.0,30.25,SE,144,0.0,0.0,95,0.00,,,0.02,oem by Ross Wheeler,2013-05-19 07:10:00,
2013-05-19 03:15:00,55.8,54.0,30.25,SE,144,0.0,0.0,95,0.00,,,0.02,oem by Ross Wheeler,2013-05-19 07:15:00,
2013-05-19 03:25:00,55.7,54.0,30.25,SE,144,0.0,0.0,95,0.00,,,0.02,oem by Ross Wheeler,2013-05-19 07:25:00,
2013-05-19 03:30:00,55.7,54.0,30.25,SE,144,0.0,0.0,95,0.00,,,0.03,oem by Ross Wheeler,2013-05-19 07:30:00,
2013-05-19 03:40:00,55.5,54.0,30.24,SE,144,0.0,0.0,96,0.00,,,0.04,oem by Ross Wheeler,2013-05-19 07:40:00,
2013-05-19 03:45:00,55.4,54.0,30.24,SE,144,0.0,0.0,96,0.00,,,0.04,oem by Ross Wheeler,2013-05-19 07:45:00,
2013-05-19 03:55:00,55.2,54.0,30.25,SE,144,0.0,0.0,96,0.00,,,0.04,oem by Ross Wheeler,2013-05-19 07:55:00,
2013-05-19 04:00:00,55.1,54.0,30.25,SE,144,0.0,0.0,96,0.00,,,0.05,oem by Ross Wheeler,2013-05-19 08:00:00,
2013-05-19 04:10:00,55.1,54.0,30.25,SE,144,0.0,0.0,96,0.00,,,0.08,oem by Ross Wheeler,2013-05-19 08:10:00,
2013-05-19 04:15:00,54.9,54.0,30.25,SE,144,0.0,0.0,96,0.00,,,0.09,oem by Ross Wheeler,2013-05-19 08:15:00,
2013-05-19 04:25:00,54.8,54.0,30.24,SE,144,0.0,0.0,96,0.00,,,0.09,oem by Ross Wheeler,2013-05-19 08:25:00,
2013-05-19 04:31:00,54.8,54.0,30.24,SE,144,0.0,0.0,96,0.00,,,0.10,oem by Ross Wheeler,2013-05-19 08:31:00,
2013-05-19 04:40:00,54.8,54.0,30.24,SE,144,0.0,0.0,96,0.00,,,0.10,oem by Ross Wheeler,2013-05-19 08:40:00,
2013-05-19 04:46:00,54.6,54.0,30.24,SE,144,0.0,0.0,96,0.00,,,0.10,oem by Ross Wheeler,2013-05-19 08:46:00,
2013-05-19 04:55:00,54.8,54.0,30.24,SE,144,0.0,0.0,96,0.00,,,0.10,oem by Ross Wheeler,2013-05-19 08:55:00,
2013-05-19 05:00:00,54.8,54.0,30.24,SE,144,0.0,0.0,96,0.00,,,0.10,oem by Ross Wheeler,2013-05-19 09:00:00,
2013-05-19 05:10:00,54.8,54.0,30.24,SE,144,0.0,0.0,97,0.00,,,0.10,oem by Ross Wheeler,2013-05-19 09:10:00,
2013-05-19 05:15:00,54.9,54.0,30.24,SE,144,0.0,0.0,97,0.00,,,0.11,oem by Ross Wheeler,2013-05-19 09:15:00,
2013-05-19 05:25:00,54.9,54.0,30.24,SE,144,0.0,0.0,97,0.00,,,0.11,oem by Ross Wheeler,2013-05-19 09:25:00,
2013-05-19 05:30:00,54.9,54.0,30.24,SE,144,0.0,0.0,97,0.00,,,0.12,oem by Ross Wheeler,2013-05-19 09:30:00,
2013-05-19 05:40:00,54.9,54.0,30.24,SE,144,0.0,0.0,97,0.00,,,0.12,oem by Ross Wheeler,2013-05-19 09:40:00,
2013-05-19 05:45:00,54.9,54.0,30.24,SE,144,0.0,0.0,97,0.00,,,0.12,oem by Ross Wheeler,2013-05-19 09:45:00,
2013-05-19 05:55:00,54.9,54.0,30.24,SE,144,0.0,0.0,97,0.00,,,0.12,oem by Ross Wheeler,2013-05-19 09:55:00,
2013-05-19 06:00:00,54.9,54.0,30.25,SE,144,0.0,0.0,97,0.00,,,0.13,oem by Ross Wheeler,2013-05-19 10:00:00,
2013-05-19 06:10:00,54.9,54.0,30.25,SE,144,0.0,0.0,97,0.00,,,0.14,oem by Ross Wheeler,2013-05-19 10:10:00,
2013-05-19 06:15:00,54.9,54.0,30.25,SE,144,0.0,0.0,97,0.00,,,0.14,oem by Ross Wheeler,2013-05-19 10:15:00,
2013-05-19 06:25:00,54.9,54.0,30.25,SE,144,0.0,0.0,97,0.00,,,0.14,oem by Ross Wheeler,2013-05-19 10:25:00,
2013-05-19 06:30:00,54.9,54.0,30.25,SE,144,0.0,0.0,97,0.00,,,0.14,oem by Ross Wheeler,2013-05-19 10:30:00,
2013-05-19 06:40:00,54.9,54.0,30.25,SE,144,0.0,0.0,97,0.00,,,0.15,oem by Ross Wheeler,2013-05-19 10:40:00,
2013-05-19 06:45:00,55.1,54.0,30.25,SE,144,0.0,0.0,97,0.00,,,0.16,oem by Ross Wheeler,2013-05-19 10:45:00,
2013-05-19 06:55:00,55.1,54.0,30.26,SE,144,0.0,0.0,97,0.00,,,0.18,oem by Ross Wheeler,2013-05-19 10:55:00,
2013-05-19 07:01:00,55.1,54.0,30.26,SE,144,0.0,0.0,97,0.00,,,0.19,oem by Ross Wheeler,2013-05-19 11:01:00,
2013-05-19 07:10:00,55.2,54.0,30.26,SE,144,0.0,0.0,97,0.00,,,0.20,oem by Ross Wheeler,2013-05-19 11:10:00,
2013-05-19 07:15:00,55.2,55.0,30.26,SE,144,0.0,0.0,98,0.00,,,0.20,oem by Ross Wheeler,2013-05-19 11:15:00,
2013-05-19 07:25:00,55.2,55.0,30.26,SE,144,0.0,0.0,98,0.00,,,0.21,oem by Ross Wheeler,2013-05-19 11:25:00,
2013-05-19 07:30:00,55.4,55.0,30.26,SE,144,2.0,0.0,98,0.00,,,0.21,oem by Ross Wheeler,2013-05-19 11:30:00,
2013-05-19 07:40:00,55.4,55.0,30.26,SE,144,0.0,0.0,98,0.00,,,0.21,oem by Ross Wheeler,2013-05-19 11:40:00,
2013-05-19 07:45:00,55.5,55.0,30.26,SE,144,0.0,0.0,98,0.00,,,0.21,oem by Ross Wheeler,2013-05-19 11:45:00,
2013-05-19 07:55:00,55.7,55.0,30.26,SE,144,0.0,0.0,98,0.00,,,0.22,oem by Ross Wheeler,2013-05-19 11:55:00,
2013-05-19 08:01:00,55.7,55.0,30.26,SE,144,0.0,0.0,98,0.00,,,0.22,oem by Ross Wheeler,2013-05-19 12:01:00,
2013-05-19 08:10:00,55.7,55.0,30.26,SE,144,0.0,0.0,98,0.00,,,0.22,oem by Ross Wheeler,2013-05-19 12:10:00,
2013-05-19 08:15:00,55.7,55.0,30.26,SE,144,0.0,0.0,98,0.00,,,0.22,oem by Ross Wheeler,2013-05-19 12:15:00,
2013-05-19 08:25:00,55.8,55.0,30.26,SE,144,0.0,0.0,98,0.00,,,0.22,oem by Ross Wheeler,2013-05-19 12:25:00,
2013-05-19 08:30:00,55.8,55.0,30.26,SE,144,0.0,0.0,98,0.00,,,0.22,oem by Ross Wheeler,2013-05-19 12:30:00,
2013-05-19 08:40:00,55.9,55.0,30.27,SE,144,0.0,0.0,98,0.00,,,0.22,oem by Ross Wheeler,2013-05-19 12:40:00,
2013-05-19 08:45:00,55.9,55.0,30.27,SE,144,0.0,0.0,98,0.00,,,0.22,oem by Ross Wheeler,2013-05-19 12:45:00,
2013-05-19 08:55:00,56.1,56.0,30.27,SE,144,0.0,0.0,98,0.00,,,0.22,oem by Ross Wheeler,2013-05-19 12:55:00,
2013-05-19 09:01:00,56.1,56.0,30.27,SE,144,0.0,0.0,98,0.00,,,0.22,oem by Ross Wheeler,2013-05-19 13:01:00,
2013-05-19 09:10:00,56.2,56.0,30.27,SE,144,0.0,0.0,98,0.00,,,0.22,oem by Ross Wheeler,2013-05-19 13:10:00,
2013-05-19 09:16:00,56.2,56.0,30.27,SE,144,0.0,0.0,98,0.00,,,0.22,oem by Ross Wheeler,2013-05-19 13:16:00,
2013-05-19 09:25:00,56.1,56.0,30.27,SE,144,0.0,0.0,98,0.00,,,0.23,oem by Ross Wheeler,2013-05-19 13:25:00,
2013-05-19 09:31:00,56.2,56.0,30.27,SE,144,0.0,0.0,98,0.00,,,0.24,oem by Ross Wheeler,2013-05-19 13:31:00,
2013-05-19 09:40:00,56.2,56.0,30.27,SE,144,1.0,0.0,98,0.00,,,0.24,oem by Ross Wheeler,2013-05-19 13:40:00,
2013-05-19 09:46:00,56.1,56.0,30.27,SE,144,0.0,0.0,98,0.00,,,0.24,oem by Ross Wheeler,2013-05-19 13:46:00,
2013-05-19 09:55:00,56.1,56.0,30.27,SE,144,0.0,0.0,98,0.00,,,0.24,oem by Ross Wheeler,2013-05-19 13:55:00,
2013-05-19 10:01:00,56.1,56.0,30.27,SE,124,1.0,0.0,98,0.00,,,0.25,oem by Ross Wheeler,2013-05-19 14:01:00,
2013-05-19 10:10:00,55.8,55.0,30.27,East,90,0.0,0.0,98,0.00,,,0.25,oem by Ross Wheeler,2013-05-19 14:10:00,
2013-05-19 10:15:00,55.9,55.0,30.27,East,90,2.0,0.0,98,0.00,,,0.25,oem by Ross Wheeler,2013-05-19 14:15:00,
2013-05-19 10:25:00,55.9,55.0,30.27,East,85,1.0,0.0,98,0.00,,,0.26,oem by Ross Wheeler,2013-05-19 14:25:00,
2013-05-19 10:30:00,55.9,55.0,30.27,East,97,0.0,0.0,98,0.00,,,0.26,oem by Ross Wheeler,2013-05-19 14:30:00,
2013-05-19 10:40:00,56.1,56.0,30.27,East,100,0.0,0.0,98,0.00,,,0.27,oem by Ross Wheeler,2013-05-19 14:40:00,
2013-05-19 10:45:00,56.1,56.0,30.27,ESE,104,1.0,0.0,98,0.00,,,0.27,oem by Ross Wheeler,2013-05-19 14:45:00,
2013-05-19 10:55:00,56.2,56.0,30.27,ESE,119,1.0,0.0,98,0.00,,,0.28,oem by Ross Wheeler,2013-05-19 14:55:00,
2013-05-19 11:00:00,56.2,56.0,30.27,ESE,119,0.0,0.0,98,0.00,,,0.28,oem by Ross Wheeler,2013-05-19 15:00:00,
2013-05-19 11:10:00,56.1,56.0,30.27,ESE,119,1.0,0.0,98,0.00,,,0.29,oem by Ross Wheeler,2013-05-19 15:10:00,
2013-05-19 11:15:00,56.1,56.0,30.27,ESE,119,0.0,0.0,98,0.00,,,0.29,oem by Ross Wheeler,2013-05-19 15:15:00,
2013-05-19 11:25:00,55.9,55.0,30.27,East,99,2.0,0.0,98,0.00,,,0.29,oem by Ross Wheeler,2013-05-19 15:25:00,
2013-05-19 11:30:00,55.8,55.0,30.27,East,99,1.0,0.0,98,0.00,,,0.29,oem by Ross Wheeler,2013-05-19 15:30:00,
2013-05-19 11:40:00,55.8,55.0,30.27,ESE,119,0.0,0.0,98,0.00,,,0.29,oem by Ross Wheeler,2013-05-19 15:40:00,
2013-05-19 11:45:00,55.9,55.0,30.27,ESE,119,0.0,0.0,98,0.00,,,0.29,oem by Ross Wheeler,2013-05-19 15:45:00,
2013-05-19 11:55:00,55.8,55.0,30.26,SE,140,1.0,0.0,98,0.00,,,0.29,oem by Ross Wheeler,2013-05-19 15:55:00,
2013-05-19 12:00:00,55.8,55.0,30.26,ESE,106,2.0,0.0,98,0.00,,,0.30,oem by Ross Wheeler,2013-05-19 16:00:00,
2013-05-19 12:10:00,55.8,55.0,30.26,ESE,114,2.0,0.0,98,0.00,,,0.30,oem by Ross Wheeler,2013-05-19 16:10:00,
2013-05-19 12:15:00,55.8,55.0,30.26,ESE,110,2.0,0.0,98,0.00,,,0.31,oem by Ross Wheeler,2013-05-19 16:15:00,
2013-05-19 12:25:00,56.1,56.0,30.25,ESE,123,1.0,0.0,98,0.00,,,0.32,oem by Ross Wheeler,2013-05-19 16:25:00,
2013-05-19 12:30:00,56.2,56.0,30.25,ESE,120,1.0,0.0,98,0.00,,,0.32,oem by Ross Wheeler,2013-05-19 16:30:00,
2013-05-19 12:40:00,56.2,56.0,30.25,ESE,113,1.0,0.0,98,0.00,,,0.33,oem by Ross Wheeler,2013-05-19 16:40:00,
2013-05-19 12:45:00,56.2,56.0,30.25,ESE,110,1.0,0.0,98,0.00,,,0.33,oem by Ross Wheeler,2013-05-19 16:45:00,
2013-05-19 12:55:00,56.2,56.0,30.24,East,96,2.0,0.0,98,0.00,,,0.34,oem by Ross Wheeler,2013-05-19 16:55:00,
2013-05-19 13:01:00,56.2,56.0,30.24,East,92,3.0,0.0,98,0.00,,,0.34,oem by Ross Wheeler,2013-05-19 17:01:00,
2013-05-19 13:10:00,56.1,56.0,30.24,East,95,1.0,0.0,98,0.00,,,0.34,oem by Ross Wheeler,2013-05-19 17:10:00,
2013-05-19 13:15:00,56.1,56.0,30.24,East,99,1.0,0.0,98,0.00,,,0.34,oem by Ross Wheeler,2013-05-19 17:15:00,
2013-05-19 13:25:00,56.1,56.0,30.23,SE,133,2.0,0.0,98,0.00,,,0.34,oem by Ross Wheeler,2013-05-19 17:25:00,
2013-05-19 13:30:00,56.1,56.0,30.23,ESE,102,3.0,0.0,98,0.00,,,0.34,oem by Ross Wheeler,2013-05-19 17:30:00,
2013-05-19 13:40:00,56.1,56.0,30.23,ESE,106,2.0,0.0,99,0.00,,,0.34,oem by Ross Wheeler,2013-05-19 17:40:00,
2013-05-19 13:45:00,56.1,56.0,30.23,ESE,116,1.0,0.0,98,0.00,,,0.34,oem by Ross Wheeler,2013-05-19 17:45:00,
2013-05-19 13:55:00,56.1,56.0,30.22,ESE,116,1.0,0.0,98,0.00,,,0.34,oem by Ross Wheeler,2013-05-19 17:55:00,
2013-05-19 14:00:00,55.9,55.0,30.22,East,100,2.0,0.0,98,0.00,,,0.34,oem by Ross Wheeler,2013-05-19 18:00:00,
2013-05-19 14:10:00,55.9,55.0,30.23,ESE,102,2.0,0.0,98,0.00,,,0.34,oem by Ross Wheeler,2013-05-19 18:10:00,
2013-05-19 14:15:00,55.9,55.0,30.23,ESE,106,3.0,0.0,98,0.00,,,0.34,oem by Ross Wheeler,2013-05-19 18:15:00,
2013-05-19 14:25:00,55.8,56.0,30.22,ESE,107,2.0,0.0,99,0.00,,,0.34,oem by Ross Wheeler,2013-05-19 18:25:00,
2013-05-19 14:30:00,55.8,56.0,30.22,ESE,110,2.0,0.0,99,0.00,,,0.34,oem by Ross Wheeler,2013-05-19 18:30:00,
2013-05-19 14:40:00,55.9,56.0,30.22,East,89,2.0,0.0,99,0.00,,,0.34,oem by Ross Wheeler,2013-05-19 18:40:00,
2013-05-19 14:45:00,55.9,56.0,30.22,ESE,109,2.0,0.0,99,0.00,,,0.35,oem by Ross Wheeler,2013-05-19 18:45:00,
2013-05-19 14:55:00,55.9,56.0,30.22,East,96,1.0,0.0,99,0.00,,,0.35,oem by Ross Wheeler,2013-05-19 18:55:00,
2013-05-19 15:00:00,55.9,56.0,30.22,East,97,2.0,0.0,99,0.00,,,0.35,oem by Ross Wheeler,2013-05-19 19:00:00,
2013-05-19 15:10:00,55.9,56.0,30.21,East,96,1.0,0.0,99,0.00,,,0.35,oem by Ross Wheeler,2013-05-19 19:10:00,
2013-05-19 15:15:00,55.9,56.0,30.21,ENE,73,4.0,0.0,99,0.00,,,0.35,oem by Ross Wheeler,2013-05-19 19:15:00,
2013-05-19 15:25:00,55.9,56.0,30.20,ENE,78,3.0,0.0,99,0.00,,,0.35,oem by Ross Wheeler,2013-05-19 19:25:00,
2013-05-19 15:30:00,55.8,56.0,30.20,East,96,1.0,0.0,99,0.00,,,0.35,oem by Ross Wheeler,2013-05-19 19:30:00,
2013-05-19 15:40:00,55.9,56.0,30.19,East,92,1.0,0.0,99,0.00,,,0.35,oem by Ross Wheeler,2013-05-19 19:40:00,
2013-05-19 15:45:00,55.9,56.0,30.19,ESE,120,1.0,0.0,99,0.00,,,0.35,oem by Ross Wheeler,2013-05-19 19:45:00,
2013-05-19 15:55:00,55.9,56.0,30.19,ESE,103,3.0,0.0,99,0.00,,,0.35,oem by Ross Wheeler,2013-05-19 19:55:00,
2013-05-19 16:00:00,55.9,56.0,30.19,ESE,104,3.0,0.0,99,0.00,,,0.35,oem by Ross Wheeler,2013-05-19 20:00:00,
2013-05-19 16:10:00,55.9,56.0,30.18,ESE,104,2.0,0.0,99,0.00,,,0.35,oem by Ross Wheeler,2013-05-19 20:10:00,
2013-05-19 16:15:00,55.9,56.0,30.18,East,97,1.0,0.0,99,0.00,,,0.35,oem by Ross Wheeler,2013-05-19 20:15:00,
2013-05-19 16:25:00,55.9,56.0,30.18,East,100,1.0,0.0,99,0.00,,,0.35,oem by Ross Wheeler,2013-05-19 20:25:00,
2013-05-19 16:30:00,55.9,56.0,30.18,ESE,111,1.0,0.0,99,0.00,,,0.35,oem by Ross Wheeler,2013-05-19 20:30:00,
2013-05-19 16:40:00,55.8,56.0,30.18,East,97,3.0,0.0,99,0.00,,,0.35,oem by Ross Wheeler,2013-05-19 20:40:00,
2013-05-19 16:45:00,55.8,56.0,30.18,East,97,0.0,0.0,99,0.00,,,0.35,oem by Ross Wheeler,2013-05-19 20:45:00,
2013-05-19 16:55:00,55.8,56.0,30.17,East,100,3.0,0.0,99,0.00,,,0.35,oem by Ross Wheeler,2013-05-19 20:55:00,
2013-05-19 17:00:00,55.8,56.0,30.17,East,93,2.0,0.0,99,0.00,,,0.35,oem by Ross Wheeler,2013-05-19 21:00:00,
2013-05-19 17:10:00,55.8,56.0,30.18,East,97,2.0,0.0,99,0.00,,,0.45,oem by Ross Wheeler,2013-05-19 21:10:00,
2013-05-19 17:15:00,55.8,56.0,30.18,East,93,2.0,0.0,99,0.00,,,0.45,oem by Ross Wheeler,2013-05-19 21:15:00,
2013-05-19 17:25:00,55.8,56.0,30.17,East,90,2.0,0.0,99,0.00,,,0.45,oem by Ross Wheeler,2013-05-19 21:25:00,
2013-05-19 17:30:00,55.8,56.0,30.17,East,90,2.0,0.0,99,0.00,,,0.45,oem by Ross Wheeler,2013-05-19 21:30:00,
2013-05-19 17:40:00,55.8,56.0,30.18,East,90,0.0,0.0,99,0.00,,,0.45,oem by Ross Wheeler,2013-05-19 21:40:00,
2013-05-19 17:50:00,55.8,56.0,30.17,East,89,1.0,0.0,99,0.00,,,0.45,oem by Ross Wheeler,2013-05-19 21:50:00,
2013-05-19 17:55:00,55.7,56.0,30.17,East,86,2.0,0.0,99,0.00,,,0.45,oem by Ross Wheeler,2013-05-19 21:55:00,
2013-05-19 18:00:00,55.8,56.0,30.17,East,93,2.0,0.0,99,0.00,,,0.45,oem by Ross Wheeler,2013-05-19 22:00:00,
2013-05-19 18:10:00,55.8,56.0,30.17,East,79,2.0,0.0,99,0.00,,,0.45,oem by Ross Wheeler,2013-05-19 22:10:00,
2013-05-19 18:15:00,55.8,56.0,30.17,East,80,0.0,0.0,99,0.00,,,0.45,oem by Ross Wheeler,2013-05-19 22:15:00,
2013-05-19 18:20:00,55.8,56.0,30.17,East,82,2.0,0.0,99,0.00,,,0.45,oem by Ross Wheeler,2013-05-19 22:20:00,
2013-05-19 18:30:00,55.8,56.0,30.17,East,83,0.0,0.0,99,0.00,,,0.45,oem by Ross Wheeler,2013-05-19 22:30:00,
2013-05-19 18:40:00,55.7,56.0,30.17,ENE,72,3.0,0.0,99,0.00,,,0.45,oem by Ross Wheeler,2013-05-19 22:40:00,
2013-05-19 18:45:00,55.8,56.0,30.17,ENE,72,0.0,0.0,99,0.00,,,0.45,oem by Ross Wheeler,2013-05-19 22:45:00,
2013-05-19 18:55:00,55.8,56.0,30.17,East,79,1.0,0.0,99,0.00,,,0.45,oem by Ross Wheeler,2013-05-19 22:55:00,
2013-05-19 19:00:00,55.8,56.0,30.17,East,79,0.0,0.0,99,0.00,,,0.45,oem by Ross Wheeler,2013-05-19 23:00:00,
2013-05-19 19:10:00,55.8,56.0,30.17,East,79,0.0,0.0,99,0.00,,,0.45,oem by Ross Wheeler,2013-05-19 23:10:00,
2013-05-19 19:15:00,55.9,56.0,30.17,East,79,0.0,0.0,99,0.00,,,0.45,oem by Ross Wheeler,2013-05-19 23:15:00,
2013-05-19 19:20:00,55.9,56.0,30.17,East,79,0.0,0.0,99,0.00,,,0.45,oem by Ross Wheeler,2013-05-19 23:20:00,
2013-05-19 19:30:00,55.9,56.0,30.17,East,79,0.0,0.0,99,0.00,,,0.45,oem by Ross Wheeler,2013-05-19 23:30:00,
2013-05-19 19:40:00,55.9,56.0,30.17,East,79,0.0,0.0,99,0.00,,,0.45,oem by Ross Wheeler,2013-05-19 23:40:00,
2013-05-19 19:45:00,55.9,56.0,30.17,East,79,0.0,0.0,99,0.00,,,0.45,oem by Ross Wheeler,2013-05-19 23:45:00,
2013-05-19 19:55:00,55.9,56.0,30.17,ENE,69,0.0,0.0,99,0.00,,,0.45,oem by Ross Wheeler,2013-05-19 23:55:00,
2013-05-19 20:01:00,55.9,56.0,30.17,ENE,69,0.0,0.0,99,0.00,,,0.45,oem by Ross Wheeler,2013-05-20 00:01:00,
2013-05-19 20:10:00,55.9,56.0,30.17,ENE,69,0.0,0.0,99,0.00,,,0.45,oem by Ross Wheeler,2013-05-20 00:10:00,
2013-05-19 20:15:00,55.9,56.0,30.16,ENE,69,0.0,0.0,99,0.00,,,0.45,oem by Ross Wheeler,2013-05-20 00:15:00,
2013-05-19 20:25:00,55.8,56.0,30.16,ENE,69,0.0,0.0,99,0.00,,,0.45,oem by Ross Wheeler,2013-05-20 00:25:00,
2013-05-19 20:30:00,55.8,56.0,30.16,ENE,69,0.0,0.0,99,0.00,,,0.46,oem by Ross Wheeler,2013-05-20 00:30:00,
2013-05-19 20:40:00,55.8,56.0,30.16,ENE,69,0.0,0.0,99,0.00,,,0.46,oem by Ross Wheeler,2013-05-20 00:40:00,
2013-05-19 20:50:00,55.8,56.0,30.15,ENE,69,0.0,0.0,99,0.00,,,0.46,oem by Ross Wheeler,2013-05-20 00:50:00,
2013-05-19 20:55:00,55.8,56.0,30.15,ENE,69,0.0,0.0,99,0.00,,,0.46,oem by Ross Wheeler,2013-05-20 00:55:00,
2013-05-19 21:00:00,55.8,56.0,30.14,ENE,69,0.0,0.0,99,0.00,,,0.46,oem by Ross Wheeler,2013-05-20 01:00:00,
2013-05-19 21:10:00,55.8,56.0,30.14,ENE,69,0.0,0.0,99,0.00,,,0.46,oem by Ross Wheeler,2013-05-20 01:10:00,
2013-05-19 21:15:00,55.8,56.0,30.14,ENE,69,0.0,0.0,99,0.00,,,0.46,oem by Ross Wheeler,2013-05-20 01:15:00,
2013-05-19 21:25:00,55.8,56.0,30.14,ENE,69,0.0,0.0,99,0.00,,,0.46,oem by Ross Wheeler,2013-05-20 01:25:00,
2013-05-19 21:31:00,55.8,56.0,30.15,ENE,69,0.0,0.0,99,0.00,,,0.46,oem by Ross Wheeler,2013-05-20 01:31:00,
2013-05-19 21:40:00,55.8,56.0,30.15,ENE,69,0.0,0.0,99,0.00,,,0.46,oem by Ross Wheeler,2013-05-20 01:40:00,
2013-05-19 21:45:00,55.8,56.0,30.15,ENE,69,0.0,0.0,99,0.00,,,0.46,oem by Ross Wheeler,2013-05-20 01:45:00,
2013-05-19 21:55:00,55.8,56.0,30.15,ENE,69,0.0,0.0,99,0.00,,,0.46,oem by Ross Wheeler,2013-05-20 01:55:00,
2013-05-19 22:01:00,55.8,56.0,30.15,ENE,69,0.0,0.0,99,0.00,,,0.46,oem by Ross Wheeler,2013-05-20 02:01:00,
2013-05-19 22:10:00,55.9,56.0,30.15,ENE,69,0.0,0.0,99,0.00,,,0.46,oem by Ross Wheeler,2013-05-20 02:10:00,
2013-05-19 22:15:00,55.9,56.0,30.16,ENE,69,0.0,0.0,99,0.00,,,0.46,oem by Ross Wheeler,2013-05-20 02:15:00,
2013-05-19 22:25:00,55.9,56.0,30.16,ENE,69,0.0,0.0,99,0.00,,,0.46,oem by Ross Wheeler,2013-05-20 02:25:00,
2013-05-19 22:31:00,55.9,56.0,30.15,ENE,69,0.0,0.0,99,0.00,,,0.46,oem by Ross Wheeler,2013-05-20 02:31:00,
2013-05-19 22:40:00,55.9,56.0,30.15,ENE,69,0.0,0.0,99,0.00,,,0.46,oem by Ross Wheeler,2013-05-20 02:40:00,
2013-05-19 22:45:00,55.9,56.0,30.16,ENE,69,0.0,0.0,99,0.00,,,0.46,oem by Ross Wheeler,2013-05-20 02:45:00,
2013-05-19 22:55:00,56.1,56.0,30.16,ENE,69,0.0,0.0,99,0.00,,,0.46,oem by Ross Wheeler,2013-05-20 02:55:00,
2013-05-19 23:01:00,56.1,56.0,30.16,ENE,69,0.0,0.0,99,0.00,,,0.46,oem by Ross Wheeler,2013-05-20 03:01:00,
2013-05-19 23:10:00,56.2,56.0,30.16,NE,38,0.0,0.0,99,0.00,,,0.46,oem by Ross Wheeler,2013-05-20 03:10:00,
2013-05-19 23:15:00,56.2,56.0,30.15,NE,37,0.0,0.0,99,0.00,,,0.46,oem by Ross Wheeler,2013-05-20 03:15:00,
2013-05-19 23:25:00,56.4,56.0,30.15,NE,37,0.0,0.0,99,0.00,,,0.46,oem by Ross Wheeler,2013-05-20 03:25:00,
2013-05-19 23:30:00,56.4,56.0,30.16,NE,37,0.0,0.0,99,0.00,,,0.46,oem by Ross Wheeler,2013-05-20 03:30:00,
2013-05-19 23:40:00,56.5,56.0,30.16,NE,37,0.0,0.0,99,0.00,,,0.46,oem by Ross Wheeler,2013-05-20 03:40:00,
2013-05-19 23:45:00,56.5,56.0,30.15,NE,37,0.0,0.0,99,0.00,,,0.46,oem by Ross Wheeler,2013-05-20 03:45:00,
2013-05-19 23:55:00,56.5,56.0,30.15,NE,37,0.0,0.0,99,0.00,,,0.46,oem by Ross Wheeler,2013-05-20 03:55:00,